�������l�o���
Date,Time,MP-1(��Sv/h),MP-2(��Sv/h),MP-3(��Sv/h),MP-4(��Sv/h),MP-5(��Sv/h),MP-6(��Sv/h),MP-7(��Sv/h),MP-8(��Sv/h),����,����(m/s),���J
2019/08/14,00:00,0.776,1.103,0.763,1.360,1.005,0.432,0.758,0.713,�k�k��,4.4,�L
2019/08/14,00:10,0.779,1.105,0.763,1.359,1.004,0.430,0.757,0.713,�k�k��,4.1,��
2019/08/14,00:20,0.777,1.105,0.763,1.360,1.004,0.429,0.759,0.715,�k�k��,4.2,�L
2019/08/14,00:30,0.776,1.106,0.763,1.359,1.003,0.432,0.757,0.714,�k�k��,3.8,�L
2019/08/14,00:40,0.775,1.102,0.763,1.357,0.998,0.430,0.755,0.711,�k�k��,4.5,�L
2019/08/14,00:50,0.770,1.090,0.756,1.348,0.986,0.430,0.752,0.709,�k�k��,4.8,�L
2019/08/14,01:00,0.769,1.081,0.751,1.347,0.983,0.429,0.752,0.709,�k�k��,5.3,�L
2019/08/14,01:10,0.767,1.081,0.755,1.342,0.980,0.428,0.752,0.710,�k��,4.8,�L
2019/08/14,01:20,0.766,1.078,0.753,1.342,0.980,0.427,0.752,0.707,�k�k��,4.0,�L
2019/08/14,01:30,0.765,1.069,0.749,1.341,0.980,0.428,0.752,0.708,�k�k��,5.0,�L
2019/08/14,01:40,0.761,1.066,0.746,1.333,0.975,0.427,0.751,0.710,�k,4.5,�L
2019/08/14,01:50,0.760,1.064,0.745,1.334,0.975,0.426,0.750,0.710,�k,4.9,�L
2019/08/14,02:00,0.760,1.064,0.745,1.333,0.975,0.426,0.750,0.708,�k,4.0,�L
2019/08/14,02:10,0.760,1.065,0.745,1.332,0.977,0.426,0.752,0.708,�k,4.6,�L
2019/08/14,02:20,0.759,1.064,0.745,1.334,0.975,0.425,0.752,0.711,�k,5.6,��
2019/08/14,02:30,0.760,1.066,0.744,1.334,0.977,0.426,0.750,0.709,�k,6.1,�L
2019/08/14,02:40,0.759,1.064,0.746,1.333,0.975,0.426,0.752,0.708,�k�k��,4.9,��
2019/08/14,02:50,0.757,1.064,0.746,1.333,0.976,0.425,0.752,0.710,�k�k��,5.1,��
2019/08/14,03:00,0.758,1.064,0.745,1.333,0.975,0.425,0.752,0.710,�k�k��,4.7,��
2019/08/14,03:10,0.758,1.063,0.745,1.332,0.975,0.427,0.753,0.709,�k�k��,6.0,��
2019/08/14,03:20,0.758,1.063,0.746,1.333,0.976,0.425,0.749,0.710,�k�k��,5.2,��
2019/08/14,03:30,0.761,1.067,0.746,1.336,0.976,0.425,0.752,0.709,�k�k��,5.6,��
2019/08/14,03:40,0.756,1.065,0.743,1.334,0.975,0.425,0.751,0.709,�k�k��,5.4,��
2019/08/14,03:50,0.758,1.065,0.745,1.332,0.973,0.424,0.752,0.710,�k�k��,4.8,��
2019/08/14,04:00,0.758,1.066,0.747,1.335,0.975,0.427,0.752,0.708,�k�k��,5.6,��
2019/08/14,04:10,0.758,1.064,0.744,1.331,0.976,0.425,0.752,0.709,�k�k��,5.8,��
2019/08/14,04:20,0.757,1.066,0.745,1.335,0.975,0.424,0.752,0.709,�k�k��,5.9,��
2019/08/14,04:30,0.757,1.067,0.746,1.335,0.977,0.425,0.752,0.708,�k�k��,6.3,��
2019/08/14,04:40,0.759,1.066,0.747,1.336,0.974,0.425,0.753,0.709,�k�k��,6.1,��
2019/08/14,04:50,0.758,1.067,0.746,1.336,0.978,0.425,0.752,0.710,�k�k��,6.2,��
2019/08/14,05:00,0.758,1.065,0.746,1.334,0.978,0.424,0.754,0.710,�k�k��,6.4,��
2019/08/14,05:10,0.757,1.065,0.745,1.334,0.977,0.424,0.752,0.709,�k�k��,5.8,��
2019/08/14,05:20,0.758,1.068,0.746,1.334,0.975,0.424,0.751,0.710,�k�k��,6.7,��
2019/08/14,05:30,0.759,1.065,0.745,1.336,0.977,0.426,0.753,0.712,�k�k��,6.9,��
2019/08/14,05:40,0.759,1.064,0.745,1.336,0.977,0.425,0.752,0.710,�k�k��,6.5,��
2019/08/14,05:50,0.760,1.068,0.747,1.337,0.976,0.424,0.752,0.709,�k�k��,6.4,��
2019/08/14,06:00,0.759,1.068,0.746,1.336,0.976,0.424,0.751,0.710,�k�k��,5.9,�L
2019/08/14,06:10,0.757,1.067,0.745,1.336,0.977,0.424,0.750,0.711,�k�k��,5.3,��
2019/08/14,06:20,0.760,1.066,0.747,1.337,0.976,0.426,0.752,0.710,�k�k��,5.4,��
2019/08/14,06:30,0.759,1.067,0.747,1.338,0.976,0.426,0.753,0.710,�k�k��,5.5,��
2019/08/14,06:40,0.758,1.068,0.745,1.335,0.978,0.427,0.751,0.709,�k�k��,5.1,��
2019/08/14,06:50,0.757,1.068,0.747,1.335,0.977,0.425,0.753,0.711,�k�k��,4.1,�L
2019/08/14,07:00,0.760,1.065,0.747,1.335,0.979,0.427,0.751,0.710,�k�k��,4.2,�L
2019/08/14,07:10,0.758,1.068,0.746,1.335,0.980,0.424,0.751,0.711,�k�k��,4.9,�L
2019/08/14,07:20,0.758,1.067,0.748,1.340,0.978,0.426,0.751,0.710,�k,5.1,��
2019/08/14,07:30,0.759,1.068,0.745,1.338,0.978,0.424,0.751,0.711,�k�k��,4.4,�L
2019/08/14,07:40,0.760,1.067,0.748,1.336,0.979,0.425,0.753,0.709,�k�k��,4.2,�L
2019/08/14,07:50,0.760,1.067,0.746,1.337,0.977,0.425,0.751,0.711,�k�k��,3.9,�L
2019/08/14,08:00,0.758,1.068,0.749,1.336,0.976,0.425,0.753,0.711,�k,3.9,��
2019/08/14,08:10,0.760,1.068,0.748,1.336,0.978,0.425,0.753,0.710,�k�k��,4.9,��
2019/08/14,08:20,0.761,1.068,0.747,1.338,0.979,0.426,0.753,0.711,�k�k��,4.1,��
2019/08/14,08:30,0.762,1.069,0.748,1.338,0.978,0.426,0.752,0.710,�k�k��,4.9,�L
2019/08/14,08:40,0.761,1.069,0.748,1.340,0.978,0.426,0.754,0.710,�k�k��,3.7,��
2019/08/14,08:50,0.758,1.069,0.748,1.339,0.976,0.426,0.752,0.711,�k�k��,4.7,�L
2019/08/14,09:00,0.762,1.069,0.750,1.337,0.978,0.425,0.752,0.710,�k�k��,4.5,�L
2019/08/14,09:10,0.760,1.071,0.750,1.337,0.979,0.427,0.753,0.710,�k�k��,4.2,�L
2019/08/14,09:20,0.759,1.072,0.750,1.337,0.980,0.425,0.755,0.711,�k�k��,3.6,�L
2019/08/14,09:30,0.759,1.069,0.749,1.337,0.980,0.426,0.753,0.710,�k�k��,3.6,�L
2019/08/14,09:40,0.759,1.068,0.748,1.339,0.978,0.425,0.752,0.711,�k�k��,3.5,�L
2019/08/14,09:50,0.757,1.074,0.748,1.335,0.978,0.427,0.754,0.711,�k,4.1,�L
2019/08/14,10:00,0.760,1.069,0.751,1.340,0.980,0.427,0.756,0.710,�k,4.1,��
2019/08/14,10:10,0.761,1.072,0.747,1.338,0.980,0.426,0.753,0.711,�k�k��,4.0,�L
2019/08/14,10:20,0.760,1.072,0.750,1.337,0.980,0.426,0.753,0.710,�k�k��,3.6,�L
2019/08/14,10:30,0.760,1.072,0.752,1.338,0.979,0.425,0.753,0.710,�k�k��,4.0,�L
2019/08/14,10:40,0.762,1.070,0.749,1.340,0.981,0.424,0.753,0.711,�k�k��,4.2,�L
2019/08/14,10:50,0.762,1.072,0.749,1.340,0.980,0.427,0.754,0.710,�k,3.2,�L
2019/08/14,11:00,0.763,1.072,0.751,1.336,0.978,0.426,0.754,0.711,�k�k��,3.6,��
2019/08/14,11:10,0.762,1.074,0.750,1.337,0.982,0.427,0.754,0.712,�k�k��,3.9,��
2019/08/14,11:20,0.761,1.073,0.751,1.340,0.979,0.427,0.753,0.712,�k,3.8,��
2019/08/14,11:30,0.761,1.073,0.750,1.339,0.980,0.427,0.752,0.713,�k,3.3,��
2019/08/14,11:40,0.761,1.075,0.751,1.342,0.982,0.425,0.753,0.712,�k,3.3,��
2019/08/14,11:50,0.762,1.077,0.750,1.341,0.982,0.427,0.753,0.713,�k,3.3,�L
2019/08/14,12:00,0.764,1.076,0.752,1.344,0.985,0.426,0.754,0.712,�k�k��,3.7,�L
2019/08/14,12:10,0.762,1.075,0.750,1.343,0.984,0.427,0.753,0.712,�k�k��,3.2,�L
2019/08/14,12:20,0.760,1.073,0.750,1.342,0.979,0.427,0.753,0.709,�k,3.0,��
2019/08/14,12:30,0.762,1.074,0.751,1.340,0.982,0.428,0.754,0.711,�k�k��,2.6,��
2019/08/14,12:40,0.764,1.078,0.751,1.342,0.982,0.427,0.756,0.710,�k�k��,2.6,��
2019/08/14,12:50,0.767,1.078,0.750,1.342,0.983,0.425,0.756,0.713,�k�k��,2.3,�L
2019/08/14,13:00,0.765,1.078,0.750,1.342,0.983,0.427,0.755,0.712,�k,1.7,�L
2019/08/14,13:10,0.767,1.079,0.752,1.341,0.982,0.428,0.755,0.713,�k,2.9,�L
2019/08/14,13:20,0.765,1.081,0.754,1.344,0.984,0.426,0.756,0.712,�k�k��,2.3,�L
2019/08/14,13:30,0.768,1.080,0.753,1.343,0.984,0.427,0.756,0.713,�k�k��,2.6,��
2019/08/14,13:40,0.765,1.079,0.753,1.343,0.984,0.427,0.757,0.712,�k�k��,3.5,��
2019/08/14,13:50,0.766,1.079,0.754,1.342,0.986,0.428,0.757,0.713,�k��,3.3,��
2019/08/14,14:00,0.767,1.079,0.754,1.341,0.985,0.427,0.756,0.711,�k,2.3,��
2019/08/14,14:10,0.765,1.080,0.753,1.342,0.987,0.428,0.758,0.711,�k,3.5,��
2019/08/14,14:20,0.768,1.080,0.752,1.342,0.986,0.430,0.756,0.711,�k�k��,2.6,��
2019/08/14,14:30,0.767,1.080,0.753,1.342,0.986,0.429,0.756,0.713,�k,2.5,��
2019/08/14,14:40,0.767,1.081,0.753,1.343,0.986,0.430,0.756,0.712,�k�k��,2.6,��
2019/08/14,14:50,0.770,1.080,0.754,1.342,0.984,0.430,0.754,0.712,�k�k��,2.6,��
2019/08/14,15:00,0.768,1.084,0.754,1.343,0.986,0.430,0.757,0.712,�k�k��,3.0,�L
2019/08/14,15:10,0.769,1.084,0.754,1.344,0.987,0.431,0.757,0.710,�k�k��,3.4,�L
2019/08/14,15:20,0.767,1.081,0.754,1.343,0.987,0.429,0.756,0.710,�k,3.7,��
2019/08/14,15:30,0.768,1.080,0.755,1.343,0.987,0.430,0.757,0.713,�k,2.6,��
2019/08/14,15:40,0.768,1.080,0.753,1.340,0.986,0.430,0.756,0.711,�k,2.5,��
2019/08/14,15:50,0.769,1.082,0.754,1.344,0.987,0.431,0.756,0.712,�k�k��,2.6,�L
2019/08/14,16:00,0.769,1.082,0.752,1.343,0.989,0.429,0.756,0.712,�k,3.1,�L
2019/08/14,16:10,0.767,1.075,0.754,1.344,0.987,0.430,0.755,0.712,�k�k��,2.8,�L
2019/08/14,16:20,0.765,1.082,0.754,1.345,0.987,0.431,0.756,0.713,�k�k��,4.4,�L
2019/08/14,16:30,0.766,1.082,0.753,1.344,0.989,0.428,0.755,0.714,�k,3.0,��
2019/08/14,16:40,0.766,1.081,0.754,1.345,0.986,0.430,0.757,0.711,�k,2.5,��
2019/08/14,16:50,0.767,1.080,0.753,1.343,0.988,0.430,0.758,0.713,�k,2.3,��
2019/08/14,17:00,0.767,1.081,0.755,1.343,0.988,0.430,0.756,0.712,�k,2.6,��
2019/08/14,17:10,0.768,1.081,0.755,1.343,0.988,0.430,0.757,0.712,�k�k��,2.5,��
2019/08/14,17:20,0.767,1.079,0.753,1.345,0.987,0.429,0.756,0.712,�k�k��,2.5,��
2019/08/14,17:30,0.767,1.081,0.755,1.343,0.987,0.431,0.758,0.713,�k,2.3,��
2019/08/14,17:40,0.765,1.080,0.756,1.343,0.987,0.430,0.757,0.713,�k��,1.2,��
2019/08/14,17:50,0.766,1.082,0.754,1.344,0.987,0.432,0.757,0.711,�k�k��,2.6,��
2019/08/14,18:00,0.768,1.081,0.754,1.343,0.986,0.429,0.755,0.713,�k�k��,2.5,��
2019/08/14,18:10,0.766,1.082,0.754,1.345,0.985,0.429,0.757,0.713,�k�k��,2.0,��
2019/08/14,18:20,0.766,1.081,0.753,1.341,0.986,0.430,0.756,0.712,�k�k��,1.7,�L
2019/08/14,18:30,0.765,1.080,0.754,1.346,0.987,0.429,0.756,0.712,�k�k��,1.4,�L
2019/08/14,18:40,0.767,1.080,0.751,1.344,0.986,0.429,0.757,0.712,�k�k��,1.1,��
2019/08/14,18:50,0.766,1.081,0.755,1.346,0.988,0.429,0.754,0.711,�k�k��,1.2,�L
2019/08/14,19:00,0.765,1.079,0.754,1.345,0.987,0.429,0.757,0.712,�k��,1.2,��
2019/08/14,19:10,0.768,1.081,0.754,1.345,0.986,0.430,0.755,0.711,�k��,1.2,�L
2019/08/14,19:20,0.767,1.081,0.752,1.346,0.987,0.430,0.757,0.711,���k��,1.4,�L
2019/08/14,19:30,0.767,1.080,0.755,1.344,0.986,0.430,0.754,0.711,�k,0.6,�L
2019/08/14,19:40,0.766,1.081,0.754,1.345,0.985,0.431,0.756,0.712,-,CALM,�L
2019/08/14,19:50,0.768,1.081,0.753,1.344,0.985,0.429,0.755,0.714,-,CALM,�L
2019/08/14,20:00,0.767,1.080,0.756,1.343,0.984,0.429,0.758,0.712,-,CALM,��
2019/08/14,20:10,0.768,1.080,0.754,1.344,0.985,0.429,0.756,0.711,-,CALM,�L
2019/08/14,20:20,0.768,1.078,0.752,1.341,0.984,0.429,0.756,0.712,���쐼,0.9,�L
2019/08/14,20:30,0.767,1.079,0.753,1.343,0.984,0.428,0.757,0.711,-,CALM,�L
2019/08/14,20:40,0.767,1.080,0.755,1.345,0.983,0.429,0.755,0.711,-,CALM,�L
2019/08/14,20:50,0.767,1.081,0.753,1.342,0.984,0.429,0.757,0.711,��,0.8,�L
2019/08/14,21:00,0.768,1.079,0.752,1.342,0.984,0.430,0.755,0.712,�쓌,1.4,��
2019/08/14,21:10,0.768,1.079,0.753,1.343,0.985,0.428,0.756,0.711,-,CALM,�L
2019/08/14,21:20,0.767,1.078,0.752,1.343,0.984,0.430,0.753,0.712,���k��,0.6,�L
2019/08/14,21:30,0.765,1.077,0.753,1.344,0.984,0.429,0.754,0.710,-,CALM,�L
2019/08/14,21:40,0.765,1.077,0.754,1.342,0.983,0.429,0.755,0.712,-,CALM,�L
2019/08/14,21:50,0.764,1.077,0.754,1.342,0.984,0.428,0.755,0.712,�쓌,1.7,��
2019/08/14,22:00,0.764,1.077,0.753,1.342,0.983,0.430,0.754,0.711,��쓌,1.5,��
2019/08/14,22:10,0.763,1.078,0.754,1.345,0.984,0.430,0.754,0.713,��,1.5,��
2019/08/14,22:20,0.765,1.079,0.753,1.343,0.983,0.429,0.757,0.712,��,2.0,��
2019/08/14,22:30,0.763,1.078,0.754,1.342,0.982,0.428,0.753,0.712,��쓌,2.3,��
2019/08/14,22:40,0.762,1.078,0.753,1.344,0.983,0.430,0.754,0.713,��,3.7,��
2019/08/14,22:50,0.763,1.078,0.753,1.342,0.984,0.430,0.756,0.711,��쓌,3.6,��
2019/08/14,23:00,0.766,1.080,0.751,1.342,0.984,0.430,0.755,0.712,��,2.6,��
2019/08/14,23:10,0.764,1.076,0.752,1.343,0.983,0.429,0.754,0.711,��쓌,3.0,��
2019/08/14,23:20,0.763,1.076,0.753,1.344,0.985,0.430,0.754,0.712,��,3.3,��
2019/08/14,23:30,0.764,1.078,0.751,1.343,0.984,0.430,0.754,0.712,��쓌,3.7,��
2019/08/14,23:40,0.764,1.078,0.752,1.342,0.985,0.430,0.755,0.712,��쓌,3.9,��
2019/08/14,23:50,0.764,1.077,0.753,1.342,0.983,0.430,0.756,0.711,��,4.7,��
